Weather Roundup
Issued by NWS Chicago, IL

Home | Current Version | Previous Version | Graphics & Text | Print | Product List | Glossary On
Versions: 1 2 3 4 5 6 7 8 9 10 11 12 13 14 15 16 17 18 19 20 21 22 23 24 25 26 27 28 29 30 31 32 33 34 35 36 37 38 39 40 41 42 43 44 45 46 47 48 49 50
000
NZUS59 KLOT 031508
HRRLOT

CHICAGO AREA WEATHER ROUNDUP
NATIONAL WEATHER SERVICE CHICAGO/ROMEOVILLE IL
1000 AM CDT THU SEP 03 2015

NOTE: "FAIR" INDICATES FEW OR NO CLOUDS BELOW 12,000 FEET WITH NO
SIGNIFICANT WEATHER AND/OR OBSTRUCTIONS TO VISIBILITY.

* THESE STATIONS ARE NOT UNDER NWS QUALITY CONTROL. THEY ALSO MAY NOT
  REPORT WEATHER SUCH AS PRECIPITATION OR FOG.

ILZ005-006-012>014-019>023-031600-
NORTHEAST ILLINOIS

CITY           SKY/WX    TMP DP  RH WIND       PRES   REMARKS
OHARE          MOSUNNY   82  69  64 W12       29.94F HX  85
MIDWAY         MOSUNNY   84  68  58 W10       29.95S HX  87
AURORA         SUNNY     81  71  71 W8        29.97S HX  85
LANSING*       SUNNY     83  69  61 SW9       29.96F HX  86
JOLIET*        SUNNY     83  71  66 W7        29.97S HX  87
WAUKEGAN       SUNNY     82  69  64 W8        29.93S HX  85
DUPAGE AIRPORT SUNNY     80  69  69 SW9       29.95F HX  83
WHEELING       SUNNY     83  68  60 W12       29.95S HX  86
KANKAKEE*      SUNNY     84  72  66 SW9       29.99S HX  89
MORRIS*        SUNNY     81  70  70 SW8       29.96S HX  84
LEWIS AIRPORT* SUNNY     81  68  65 SW8       29.97S HX  83
NORTHERLY IS     N/A     82  65  56 W9          N/A  HX  84
$$

WIZ051-052-058>065-066-070>072-031600-
SOUTHEAST WISCONSIN

CITY           SKY/WX    TMP DP  RH WIND       PRES   REMARKS
MILWAUKEE      MOSUNNY   80  69  69 W8        29.92S HX  83
KENOSHA*       SUNNY     81  71  71 W10       29.94S HX  85
RACINE*        MOSUNNY   80  69  69 W9        29.94S HX  83
BURLINGTON     SUNNY     78  68  70 W6        29.94S HX  81
WAUKESHA       MOSUNNY   75  70  83 SW6       29.94F
WEST BEND      PTSUNNY   77  68  73 NW10      29.92S
$$

INZ001>003-010>013-019-020-031600-
NORTHWEST INDIANA

CITY           SKY/WX    TMP DP  RH WIND       PRES   REMARKS
GARY*          SUNNY     82  66  57 SW9       29.96F HX  85
MICHIGAN CITY* NOT AVBL
RENSSELAER*    NOT AVBL
VALPARAISO     SUNNY     82  70  66 SW10      29.98F HX  86
$$

LMZ740>746-031600-
SOUTHERN LAKE MICHIGAN

STATION/POSITION TIME  SKY/WX   TEMP WIND        PRES    VSBY
                                AIR  DIR/SP/G
                 (UTC)          (F)  (DEG/KT/KT) (MB)    (MI)
HARRISON CRIB    1400            78  240/ 11/ 13   N/A
BURNHAM HARBOR   1500            83  260/  3/ 11   N/A
CALUMET HARBOR   1400            79  220/  4/ 10   N/A
BURNS HARBOR     1400            78  210/ 10/ 13 1014.9F
MICHIGAN CITY    1400            78  190/  9/ 10   N/A
$$

ABBREVIATIONS USED IN REMARKS
   TC - TEMPERATURE IN CELSIUS
  WCI - WIND CHILL INDEX
   HX - HEAT INDEX
  VSB - VISIBILITY
$$



USA.gov is the U.S. government's official web portal to all federal, state and local government web resources and services.